Weather History for Appleton, MN

Change the Weather History Date:

Tuesday, May 21, 2013

  Actual Average Record
Temperature  
Mean Temperature 56 °F -  
Max Temperature 62 °F 66 °F 84 °F (2007)
Min Temperature 50 °F 44 °F 33 °F (2008)
Degree Days  
Heating Degree Days 9    
Growing Degree Days 6 (Base 50)    
Moisture  
Dew Point 52 °F    
Average Humidity 90    
Maximum Humidity 94    
Minimum Humidity 77    
Precipitation  
Precipitation 0.70 in - - ()
Sea Level Pressure  
Sea Level Pressure 29.59 in    
Wind  
Wind Speed 11 mph (ENE)    
Max Wind Speed 17 mph    
Max Gust Speed 23 mph    
Visibility 8 miles    
Events Rain    
Averages and records for this station are not official NWS values.
T = Trace of Precipitation, MM = Missing Value Source: NWS Daily Summary

Daily Weather History Graph

Daily Weather History Graph

Search for Another Location

Airport:

Trip Planner

Search our weather history database for the weather conditions in past years. The results will help you decide how hot, cold, wet, or windy it might be!

Date:

Astronomy

May. 21, 2013 Rise Set
Actual Time 5:47 AM CDT 8:54 PM CDT
Civil Twilight 5:12 AM CDT 9:29 PM CDT
Nautical Twilight 4:27 AM CDT 10:15 PM CDT
Astronomical Twilight 3:32 AM CDT 11:10 PM CDT
Moon 4:59 PM CDT (5/21) 3:27 AM CDT (5/21)
Length of Visible Light 16h 16m
Length of Day
15h 06m
Waxing Gibbous, 84% of the Moon is Illuminated
May 21
Waxing Gibbous
May 24
Full
May 31
Last Quarter
Jun 8
New
Jun 16
First Quarter

Hourly Weather History & Observations

Time (CDT) Temp. Dew Point Humidity Pressure Visibility Wind Dir Wind Speed Gust Speed Precip Events Conditions
12:13 AM 62.6 °F 55.4 °F 77% 29.47 in 10.0 mi ESE 6.9 mph - N/A   Overcast
12:33 AM 60.8 °F 55.4 °F 82% 29.48 in 10.0 mi ESE 5.8 mph - N/A   Mostly Cloudy
12:53 AM 59.0 °F 55.4 °F 88% 29.48 in 10.0 mi ESE 6.9 mph - N/A   Scattered Clouds
1:13 AM 59.0 °F 55.4 °F 88% 29.48 in 10.0 mi ESE 6.9 mph - N/A   Clear
1:33 AM 59.0 °F 55.4 °F 88% 29.48 in 10.0 mi East 6.9 mph - N/A   Clear
1:53 AM 59.0 °F 55.4 °F 88% 29.48 in 10.0 mi ESE 8.1 mph - N/A   Scattered Clouds
2:13 AM 59.0 °F 55.4 °F 88% 29.47 in 10.0 mi ESE 6.9 mph - N/A   Scattered Clouds
2:33 AM 59.0 °F 55.4 °F 88% 29.47 in 10.0 mi East 8.1 mph - N/A   Mostly Cloudy
2:53 AM 59.0 °F 55.4 °F 88% 29.47 in 10.0 mi East 8.1 mph - N/A   Overcast
3:13 AM 60.8 °F 55.4 °F 82% 29.47 in 10.0 mi East 9.2 mph - N/A   Overcast
3:33 AM 60.8 °F 55.4 °F 82% 29.47 in 10.0 mi East 9.2 mph - N/A   Overcast
3:53 AM 60.8 °F 55.4 °F 82% 29.47 in 10.0 mi East 6.9 mph - N/A   Overcast
4:13 AM 60.8 °F 55.4 °F 82% 29.47 in 10.0 mi ENE 6.9 mph - N/A   Overcast
4:34 AM 60.8 °F 55.4 °F 82% 29.47 in 10.0 mi ENE 6.9 mph - N/A   Overcast
4:53 AM 60.8 °F 57.2 °F 88% 29.48 in 10.0 mi ENE 13.8 mph - N/A   Overcast
5:13 AM 57.2 °F 55.4 °F 94% 29.48 in 7.0 mi ENE 13.8 mph 20.7 mph N/A Rain Rain
5:33 AM 57.2 °F 53.6 °F 88% 29.49 in 7.0 mi ENE 17.3 mph - 0.01 in   Overcast
5:54 AM 57.2 °F 53.6 °F 88% 29.49 in 5.0 mi North - - 0.01 in   Overcast
6:14 AM 55.4 °F 53.6 °F 94% 20.04 in 7.0 mi ENE 15.0 mph - N/A   Overcast
6:34 AM 55.4 °F 53.6 °F 94% 29.50 in 10.0 mi ENE 15.0 mph - N/A   Overcast
6:53 AM 55.4 °F 53.6 °F 94% 29.50 in 7.0 mi ENE 15.0 mph 20.7 mph N/A Rain Rain
7:14 AM 55.4 °F 51.8 °F 88% 29.51 in 4.0 mi ENE 15.0 mph 19.6 mph 0.02 in Rain Light Rain
7:34 AM 53.6 °F 51.8 °F 94% 29.51 in 4.0 mi NE 15.0 mph - 0.02 in Rain Light Rain
7:53 AM 53.6 °F 51.8 °F 94% 29.51 in 10.0 mi ENE 15.0 mph - 0.03 in   Overcast
8:03 AM 53.6 °F 51.8 °F 94% 29.52 in 10.0 mi ENE 15.0 mph - N/A   Overcast
8:34 AM 53.6 °F 51.8 °F 94% 29.53 in 10.0 mi ENE 15.0 mph - N/A   Overcast
8:53 AM 53.6 °F 51.8 °F 94% 29.53 in 5.0 mi ENE 12.7 mph - N/A   Overcast
9:13 AM 53.6 °F 51.8 °F 94% 29.54 in 3.0 mi ENE 15.0 mph - 0.01 in   Drizzle
9:34 AM 53.6 °F 51.8 °F 94% 29.54 in 2.0 mi ENE 16.1 mph - 0.01 in Rain Light Rain
9:53 AM 53.6 °F 51.8 °F 94% 29.54 in 3.0 mi ENE 13.8 mph - 0.01 in   Overcast
10:13 AM 53.6 °F 51.8 °F 94% 29.55 in 2.5 mi ENE 12.7 mph - N/A Rain Light Rain
10:33 AM 53.6 °F 51.8 °F 94% 29.55 in 5.0 mi ENE 16.1 mph - N/A   Drizzle
10:53 AM 53.6 °F 51.8 °F 94% 29.56 in 4.0 mi ENE 16.1 mph - N/A   Drizzle
11:14 AM 53.6 °F 51.8 °F 94% 29.56 in 5.0 mi ENE 12.7 mph - 0.01 in Rain Rain
11:33 AM 53.6 °F 51.8 °F 94% 29.57 in 4.0 mi ENE 16.1 mph - 0.03 in Rain Light Rain
11:53 AM 53.6 °F 51.8 °F 94% 29.57 in 5.0 mi ENE 15.0 mph 19.6 mph 0.06 in Rain Light Rain
12:13 PM 53.6 °F 51.8 °F 94% 29.58 in 7.0 mi ENE 15.0 mph - 0.01 in Rain Light Rain
12:33 PM 53.6 °F 51.8 °F 94% 29.58 in 7.0 mi ENE 16.1 mph 21.9 mph 0.02 in Rain Light Rain
12:54 PM 53.6 °F 51.8 °F 94% 29.59 in 7.0 mi ENE 15.0 mph 21.9 mph 0.05 in Rain Light Rain
1:13 PM 53.6 °F 51.8 °F 94% 29.60 in 10.0 mi ENE 13.8 mph 21.9 mph 0.01 in Rain Rain
1:33 PM 53.6 °F 51.8 °F 94% 29.60 in 10.0 mi ENE 11.5 mph - 0.04 in Rain Light Rain
1:54 PM 53.6 °F 51.8 °F 94% 29.61 in 7.0 mi ENE 12.7 mph - 0.06 in Rain Rain
2:13 PM 53.6 °F 51.8 °F 94% 29.61 in 5.0 mi NE 13.8 mph 18.4 mph 0.03 in Rain Light Rain
2:33 PM 53.6 °F 51.8 °F 94% 29.62 in 3.0 mi ENE 11.5 mph - 0.08 in Rain Rain
2:53 PM 53.6 °F 51.8 °F 94% 29.62 in 7.0 mi ENE 12.7 mph - 0.12 in Rain Rain
3:14 PM 53.6 °F 51.8 °F 94% 29.63 in 10.0 mi ENE 13.8 mph 18.4 mph 0.03 in Rain Light Rain
3:33 PM 53.6 °F 51.8 °F 94% 29.64 in 7.0 mi ENE 11.5 mph - 0.05 in Rain Light Rain
3:53 PM 53.6 °F 51.8 °F 94% 29.64 in 10.0 mi ENE 13.8 mph - 0.07 in Rain Light Rain
4:13 PM 53.6 °F 50.0 °F 88% 29.65 in 10.0 mi ENE 11.5 mph - 0.03 in Rain Light Rain
4:33 PM 53.6 °F 50.0 °F 88% 29.66 in 7.0 mi ENE 11.5 mph - 0.05 in Rain Light Rain
4:53 PM 53.6 °F 50.0 °F 88% 29.67 in 10.0 mi ENE 12.7 mph - 0.07 in Rain Light Rain
5:14 PM 53.6 °F 51.8 °F 94% 29.67 in 7.0 mi ENE 11.5 mph 16.1 mph 0.02 in Rain Light Rain
5:33 PM 53.6 °F 50.0 °F 88% 29.68 in 10.0 mi ENE 11.5 mph - 0.04 in Rain Light Rain
5:53 PM 53.6 °F 51.8 °F 94% 29.68 in 10.0 mi ENE 10.4 mph - 0.05 in Rain Light Rain
6:13 PM 53.6 °F 51.8 °F 94% 29.68 in 10.0 mi NE 9.2 mph - 0.02 in Rain Light Rain
6:33 PM 53.6 °F 51.8 °F 94% 29.68 in 10.0 mi NE 12.7 mph 19.6 mph 0.03 in Rain Rain
6:53 PM 53.6 °F 50.0 °F 88% 29.68 in 10.0 mi NE 11.5 mph - 0.04 in Rain Light Rain
7:13 PM 53.6 °F 50.0 °F 88% 29.68 in 10.0 mi ENE 10.4 mph - 0.01 in   Drizzle
7:34 PM 53.6 °F 50.0 °F 88% 29.69 in 10.0 mi NE 11.5 mph - 0.01 in   Light Drizzle
7:53 PM 53.6 °F 48.2 °F 82% 29.69 in 10.0 mi NE 15.0 mph 23.0 mph 0.01 in   Light Drizzle
8:14 PM 53.6 °F 48.2 °F 82% 29.70 in 10.0 mi NE 16.1 mph 20.7 mph N/A   Light Drizzle
8:33 PM 53.6 °F 48.2 °F 82% 29.71 in 10.0 mi ENE 13.8 mph 19.6 mph N/A   Overcast
8:53 PM 53.6 °F 48.2 °F 82% 29.71 in 10.0 mi ENE 9.2 mph - N/A   Drizzle
9:14 PM 53.6 °F 48.2 °F 82% 29.72 in 10.0 mi NE 10.4 mph - 0.01 in Rain Light Rain
9:33 PM 51.8 °F 48.2 °F 88% 29.73 in 10.0 mi ENE 9.2 mph - 0.02 in Rain Light Rain
9:53 PM 51.8 °F 48.2 °F 88% 29.74 in 10.0 mi East 6.9 mph - 0.03 in Rain Light Rain
10:14 PM 51.8 °F 48.2 °F 88% 29.75 in 7.0 mi East 8.1 mph - 0.02 in Rain Light Rain
10:33 PM 51.8 °F 48.2 °F 88% 29.76 in 7.0 mi ENE 11.5 mph - 0.04 in Rain Rain
10:53 PM 51.8 °F 48.2 °F 88% 29.76 in 10.0 mi ENE 5.8 mph - 0.06 in Rain Light Rain
11:13 PM 51.8 °F 48.2 °F 88% 29.76 in 10.0 mi ENE 8.1 mph - 0.01 in Rain Rain
11:33 PM 50.0 °F 48.2 °F 94% 29.76 in 10.0 mi NE 8.1 mph - 0.02 in Rain Light Rain
11:53 PM 50.0 °F 46.4 °F 87% 29.76 in 10.0 mi NE 9.2 mph - 0.03 in   Drizzle